Time,TemperatureF,DewpointF,PressureIn,WindDirection,WindDirectionDegrees,WindSpeedMPH,WindSpeedGustMPH,Humidity,HourlyPrecipIn,Conditions,Clouds,dailyrainin,SoftwareType,DateUTC
2013-04-11 00:00:00,41.5,35.5,29.98,NNE,17,7.0,7.0,79,0.00,,,0.56,Wunderground v.1.15,2013-04-11 05:00:00,
2013-04-11 00:06:00,41.4,35.4,29.98,NW,322,7.0,10.0,79,0.00,,,0.00,Wunderground v.1.15,2013-04-11 05:06:00,
2013-04-11 00:11:00,41.3,35.6,29.97,NNW,346,6.0,7.0,80,0.00,,,0.00,Wunderground v.1.15,2013-04-11 05:11:00,
2013-04-11 00:17:00,41.1,35.4,29.96,WNW,301,6.0,11.0,80,0.00,,,0.00,Wunderground v.1.15,2013-04-11 05:17:00,
2013-04-11 00:23:00,41.0,35.6,29.96,NNE,18,6.0,7.0,81,0.00,,,0.00,Wunderground v.1.15,2013-04-11 05:23:00,
2013-04-11 00:29:00,40.8,35.0,29.95,North,5,16.0,16.0,81,0.00,,,0.00,weatherlink.com 1.10,2013-04-11 05:29:00,
2013-04-11 00:34:00,40.7,35.0,29.96,WNW,302,7.0,11.0,80,0.00,,,0.00,Wunderground v.1.15,2013-04-11 05:34:00,
2013-04-11 00:40:00,40.7,35.3,29.96,NNW,331,6.0,6.0,81,0.00,,,0.00,Wunderground v.1.15,2013-04-11 05:40:00,
2013-04-11 00:45:00,40.7,35.3,29.96,NNW,331,6.0,10.0,81,0.00,,,0.00,Wunderground v.1.15,2013-04-11 05:45:00,
2013-04-11 00:51:00,40.7,35.0,29.95,North,5,6.0,10.0,80,0.00,,,0.00,Wunderground v.1.15,2013-04-11 05:51:00,
2013-04-11 00:57:00,40.6,35.2,29.95,North,9,6.0,16.0,81,0.00,,,0.00,Wunderground v.1.15,2013-04-11 05:57:00,
2013-04-11 01:02:00,40.5,34.8,29.95,WNW,289,6.0,10.0,80,0.00,,,0.00,Wunderground v.1.15,2013-04-11 06:02:00,
2013-04-11 01:08:00,40.6,34.9,29.95,North,351,7.0,13.0,80,0.00,,,0.00,Wunderground v.1.15,2013-04-11 06:08:00,
2013-04-11 01:14:00,40.5,35.0,29.95,North,355,9.0,14.0,80,0.00,,,0.00,weatherlink.com 1.10,2013-04-11 06:14:00,
2013-04-11 01:20:00,40.5,34.5,29.95,NW,306,7.0,7.0,79,0.00,,,0.00,Wunderground v.1.15,2013-04-11 06:20:00,
2013-04-11 01:25:00,40.4,34.7,29.96,North,355,6.0,7.0,80,0.00,,,0.00,Wunderground v.1.15,2013-04-11 06:25:00,
2013-04-11 01:32:00,40.2,34.2,29.95,NNW,348,7.0,7.0,79,0.00,,,0.00,Wunderground v.1.15,2013-04-11 06:32:00,
2013-04-11 01:37:00,40.2,34.5,29.94,NNW,336,6.0,9.0,80,0.00,,,0.00,Wunderground v.1.15,2013-04-11 06:37:00,
2013-04-11 01:43:00,40.0,34.3,29.94,NNE,20,4.0,5.0,80,0.00,,,0.00,Wunderground v.1.15,2013-04-11 06:43:00,
2013-04-11 01:49:00,39.8,34.1,29.94,North,5,4.0,6.0,80,0.00,,,0.00,Wunderground v.1.15,2013-04-11 06:49:00,
2013-04-11 01:55:00,39.7,34.0,29.95,North,5,5.0,8.0,80,0.00,,,0.00,Wunderground v.1.15,2013-04-11 06:55:00,
2013-04-11 02:00:00,39.8,34.1,29.95,North,5,6.0,6.0,80,0.00,,,0.00,Wunderground v.1.15,2013-04-11 07:00:00,
2013-04-11 02:06:00,39.8,33.8,29.95,North,360,7.0,11.0,79,0.00,,,0.00,Wunderground v.1.15,2013-04-11 07:06:00,
2013-04-11 02:12:00,39.9,33.9,29.95,NNW,340,8.0,8.0,79,0.00,,,0.00,Wunderground v.1.15,2013-04-11 07:12:00,
2013-04-11 02:18:00,39.9,33.9,29.95,North,355,8.0,8.0,79,0.00,,,0.00,Wunderground v.1.15,2013-04-11 07:18:00,
2013-04-11 02:24:00,40.0,34.0,29.97,North,360,7.0,10.0,79,0.00,,,0.00,Wunderground v.1.15,2013-04-11 07:24:00,
2013-04-11 02:29:00,40.0,34.0,29.97,North,355,6.0,10.0,79,0.00,,,0.00,Wunderground v.1.15,2013-04-11 07:29:00,
2013-04-11 02:34:00,40.0,34.0,29.98,NNW,342,7.0,11.0,79,0.00,,,0.00,Wunderground v.1.15,2013-04-11 07:34:00,
2013-04-11 02:40:00,40.1,34.1,29.98,NNW,337,6.0,7.0,79,0.00,,,0.00,Wunderground v.1.15,2013-04-11 07:40:00,
2013-04-11 02:46:00,40.0,33.7,29.97,NNE,19,6.0,12.0,78,0.00,,,0.00,Wunderground v.1.15,2013-04-11 07:46:00,
2013-04-11 02:51:00,39.9,33.6,29.96,NNE,13,6.0,9.0,78,0.00,,,0.00,Wunderground v.1.15,2013-04-11 07:51:00,
2013-04-11 02:57:00,39.8,33.8,29.96,North,360,7.0,14.0,79,0.00,,,0.00,Wunderground v.1.15,2013-04-11 07:57:00,
2013-04-11 03:03:00,39.7,33.4,29.95,NNW,344,7.0,13.0,78,0.00,,,0.00,Wunderground v.1.15,2013-04-11 08:03:00,
2013-04-11 03:08:00,39.7,33.4,29.95,NNE,30,8.0,13.0,78,0.00,,,0.00,Wunderground v.1.15,2013-04-11 08:08:00,
2013-04-11 03:14:00,39.7,33.7,29.95,NE,38,7.0,8.0,79,0.00,,,0.00,Wunderground v.1.15,2013-04-11 08:14:00,
2013-04-11 03:30:00,39.7,33.0,29.97,NNE,12,4.0,16.0,77,0.00,,,0.00,weatherlink.com 1.10,2013-04-11 08:30:00,
2013-04-11 03:45:00,39.5,33.0,29.95,North,11,6.0,13.0,77,0.00,,,0.00,weatherlink.com 1.10,2013-04-11 08:45:00,
2013-04-11 04:00:00,39.5,33.0,29.95,NE,38,4.0,15.0,78,0.00,,,0.00,weatherlink.com 1.10,2013-04-11 09:00:00,
2013-04-11 04:15:00,39.5,34.0,29.97,NNE,15,6.0,7.0,79,0.00,,,0.00,weatherlink.com 1.10,2013-04-11 09:15:00,
2013-04-11 04:30:00,39.6,34.0,29.97,NW,315,2.0,10.0,79,0.00,,,0.00,weatherlink.com 1.10,2013-04-11 09:30:00,
2013-04-11 04:45:00,39.8,33.0,29.95,North,355,2.0,14.0,78,0.00,,,0.00,weatherlink.com 1.10,2013-04-11 09:45:00,
2013-04-11 05:00:00,39.6,33.0,29.95,North,351,5.0,15.0,77,0.00,,,0.00,weatherlink.com 1.10,2013-04-11 10:00:00,
2013-04-11 05:15:00,39.6,33.0,29.95,NNE,17,10.0,15.0,76,0.00,,,0.00,weatherlink.com 1.10,2013-04-11 10:15:00,
2013-04-11 05:30:00,39.8,32.0,29.95,North,5,8.0,14.0,75,0.00,,,0.00,weatherlink.com 1.10,2013-04-11 10:30:00,
2013-04-11 05:45:00,39.9,33.0,29.96,NW,307,7.0,13.0,75,0.00,,,0.00,weatherlink.com 1.10,2013-04-11 10:45:00,
2013-04-11 06:00:00,40.0,32.0,29.96,North,11,4.0,11.0,73,0.00,,,0.00,weatherlink.com 1.10,2013-04-11 11:00:00,
2013-04-11 06:15:00,39.6,32.0,29.97,NNE,31,3.0,9.0,75,0.00,,,0.00,weatherlink.com 1.10,2013-04-11 11:15:00,
2013-04-11 06:30:00,39.6,33.0,29.96,NNE,17,5.0,9.0,76,0.00,,,0.00,weatherlink.com 1.10,2013-04-11 11:30:00,
2013-04-11 06:45:00,39.7,33.0,29.95,NNE,15,4.0,8.0,76,0.00,,,0.00,weatherlink.com 1.10,2013-04-11 11:45:00,
2013-04-11 07:00:00,39.8,33.0,29.97,North,349,2.0,5.0,76,0.00,,,0.00,weatherlink.com 1.10,2013-04-11 12:00:00,
2013-04-11 07:15:00,39.9,33.0,29.98,NE,34,5.0,7.0,75,0.00,,,0.00,weatherlink.com 1.10,2013-04-11 12:15:00,
2013-04-11 07:30:00,40.1,33.0,29.98,North,355,1.0,6.0,75,0.00,,,0.00,weatherlink.com 1.10,2013-04-11 12:30:00,
2013-04-11 07:45:00,40.2,33.0,29.98,North,5,1.0,5.0,74,0.00,,,0.00,weatherlink.com 1.10,2013-04-11 12:45:00,
2013-04-11 08:00:00,40.5,32.0,29.97,North,355,0.0,7.0,72,0.00,,,0.00,weatherlink.com 1.10,2013-04-11 13:00:00,
2013-04-11 08:15:00,40.6,32.0,29.96,NNE,26,5.0,9.0,71,0.00,,,0.00,weatherlink.com 1.10,2013-04-11 13:15:00,
2013-04-11 08:30:00,40.9,32.0,29.93,NW,324,5.0,9.0,71,0.00,,,0.00,weatherlink.com 1.10,2013-04-11 13:30:00,
2013-04-11 08:45:00,41.6,32.0,29.93,NNE,15,5.0,10.0,69,0.00,,,0.00,weatherlink.com 1.10,2013-04-11 13:45:00,
2013-04-11 09:00:00,42.1,32.0,29.95,NNW,338,6.0,11.0,67,0.00,,,0.00,weatherlink.com 1.10,2013-04-11 14:00:00,
2013-04-11 09:15:00,43.4,32.0,29.96,West,275,6.0,12.0,64,0.00,,,0.00,weatherlink.com 1.10,2013-04-11 14:15:00,
2013-04-11 09:30:00,44.2,32.0,29.98,North,351,1.0,10.0,62,0.00,,,0.00,weatherlink.com 1.10,2013-04-11 14:30:00,
2013-04-11 09:45:00,44.9,32.0,29.98,NNE,19,3.0,8.0,60,0.00,,,0.00,weatherlink.com 1.10,2013-04-11 14:45:00,
2013-04-11 10:00:00,44.8,31.0,29.98,NW,313,4.0,10.0,60,0.00,,,0.00,weatherlink.com 1.10,2013-04-11 15:00:00,
2013-04-11 10:15:00,45.4,31.0,29.98,NW,314,3.0,13.0,58,0.00,,,0.00,weatherlink.com 1.10,2013-04-11 15:15:00,
2013-04-11 10:30:00,45.3,31.0,29.98,NW,306,4.0,9.0,58,0.01,,,0.01,weatherlink.com 1.10,2013-04-11 15:30:00,
2013-04-11 10:45:00,46.5,32.0,29.99,North,5,1.0,9.0,58,0.01,,,0.01,weatherlink.com 1.10,2013-04-11 15:45:00,
2013-04-11 11:00:00,47.3,33.0,29.99,NW,304,4.0,10.0,58,0.01,,,0.01,weatherlink.com 1.10,2013-04-11 16:00:00,
2013-04-11 11:15:00,48.1,33.0,29.98,North,5,6.0,9.0,57,0.01,,,0.01,weatherlink.com 1.10,2013-04-11 16:15:00,
2013-04-11 11:30:00,49.0,33.0,29.98,NW,321,4.0,10.0,55,0.00,,,0.01,weatherlink.com 1.10,2013-04-11 16:30:00,
2013-04-11 11:45:00,49.8,34.0,29.97,NW,313,3.0,11.0,54,0.00,,,0.01,weatherlink.com 1.10,2013-04-11 16:45:00,
2013-04-11 12:00:00,50.2,34.0,29.96,NW,315,5.0,10.0,54,0.00,,,0.01,weatherlink.com 1.10,2013-04-11 17:00:00,
2013-04-11 12:15:00,49.9,33.0,29.96,North,5,0.0,9.0,52,0.00,,,0.01,weatherlink.com 1.10,2013-04-11 17:15:00,
2013-04-11 12:25:00,51.9,34.8,29.96,WNW,295,2.0,3.0,52,0.00,,,0.01,Wunderground v.1.15,2013-04-11 17:25:00,
2013-04-11 12:31:00,52.0,34.0,29.96,NW,314,3.0,10.0,51,0.00,,,0.01,weatherlink.com 1.10,2013-04-11 17:31:00,
2013-04-11 12:36:00,52.3,35.7,29.95,NW,313,3.0,4.0,53,0.00,,,0.01,Wunderground v.1.15,2013-04-11 17:36:00,
2013-04-11 12:42:00,52.8,35.6,29.95,NW,319,2.0,6.0,52,0.00,,,0.01,Wunderground v.1.15,2013-04-11 17:42:00,
2013-04-11 12:47:00,53.2,36.5,29.94,NNW,340,2.0,3.0,53,0.00,,,0.01,Wunderground v.1.15,2013-04-11 17:47:00,
2013-04-11 12:52:00,52.4,34.3,29.94,WNW,300,2.0,3.0,50,0.00,,,0.01,Wunderground v.1.15,2013-04-11 17:52:00,
2013-04-11 12:57:00,53.0,34.3,29.94,NNE,28,3.0,4.0,49,0.00,,,0.01,Wunderground v.1.15,2013-04-11 17:57:00,
2013-04-11 13:02:00,52.9,35.0,29.94,WNW,303,2.0,9.0,52,0.00,,,0.01,weatherlink.com 1.10,2013-04-11 18:02:00,
2013-04-11 13:08:00,52.7,35.1,29.94,WSW,248,3.0,6.0,51,0.00,,,0.01,Wunderground v.1.15,2013-04-11 18:08:00,
2013-04-11 13:13:00,53.4,35.2,29.93,West,263,2.0,9.0,50,0.00,,,0.01,Wunderground v.1.15,2013-04-11 18:13:00,
2013-04-11 13:19:00,53.7,35.5,29.93,NW,321,3.0,9.0,50,0.00,,,0.01,Wunderground v.1.15,2013-04-11 18:19:00,
2013-04-11 13:24:00,54.5,35.7,29.93,West,281,3.0,6.0,49,0.00,,,0.01,Wunderground v.1.15,2013-04-11 18:24:00,
2013-04-11 13:30:00,54.2,36.5,29.93,NW,311,3.0,4.0,51,0.00,,,0.01,Wunderground v.1.15,2013-04-11 18:30:00,
2013-04-11 13:36:00,53.8,35.6,29.93,NW,317,4.0,4.0,50,0.00,,,0.01,Wunderground v.1.15,2013-04-11 18:36:00,
2013-04-11 13:41:00,53.7,35.0,29.93,NNW,348,4.0,6.0,49,0.00,,,0.01,Wunderground v.1.15,2013-04-11 18:41:00,
2013-04-11 13:47:00,54.2,36.5,29.92,WNW,288,3.0,6.0,51,0.00,,,0.01,Wunderground v.1.15,2013-04-11 18:47:00,
2013-04-11 13:52:00,54.8,36.5,29.92,NNW,342,3.0,3.0,50,0.00,,,0.01,Wunderground v.1.15,2013-04-11 18:52:00,
2013-04-11 13:57:00,55.1,36.8,29.91,WNW,299,3.0,7.0,50,0.00,,,0.01,Wunderground v.1.15,2013-04-11 18:57:00,
2013-04-11 14:03:00,55.2,37.4,29.91,NNW,331,3.0,4.0,51,0.00,,,0.01,Wunderground v.1.15,2013-04-11 19:03:00,
2013-04-11 14:08:00,54.6,36.3,29.91,NW,306,4.0,5.0,50,0.00,,,0.01,Wunderground v.1.15,2013-04-11 19:08:00,
2013-04-11 14:13:00,54.7,35.4,29.91,NNE,17,3.0,4.0,48,0.00,,,0.01,Wunderground v.1.15,2013-04-11 19:13:00,
2013-04-11 14:18:00,55.5,37.0,29.91,NE,34,5.0,12.0,51,0.00,,,0.01,weatherlink.com 1.10,2013-04-11 19:18:00,
2013-04-11 14:23:00,55.4,38.1,29.91,West,261,4.0,6.0,52,0.00,,,0.01,Wunderground v.1.15,2013-04-11 19:23:00,
2013-04-11 14:29:00,56.3,36.3,29.91,NNW,339,4.0,6.0,47,0.00,,,0.01,Wunderground v.1.15,2013-04-11 19:29:00,
2013-04-11 14:34:00,56.4,38.0,29.91,NNW,331,4.0,8.0,50,0.00,,,0.01,Wunderground v.1.15,2013-04-11 19:34:00,
2013-04-11 14:40:00,56.0,38.1,29.90,North,5,4.0,5.0,51,0.00,,,0.01,Wunderground v.1.15,2013-04-11 19:40:00,
2013-04-11 14:46:00,55.7,37.0,29.90,WNW,296,3.0,9.0,50,0.00,,,0.01,weatherlink.com 1.10,2013-04-11 19:46:00,
2013-04-11 14:51:00,55.7,36.8,29.89,NNW,334,3.0,4.0,49,0.00,,,0.01,Wunderground v.1.15,2013-04-11 19:51:00,
2013-04-11 14:57:00,56.6,36.6,29.89,North,5,4.0,8.0,47,0.00,,,0.01,Wunderground v.1.15,2013-04-11 19:57:00,
2013-04-11 15:03:00,55.9,37.5,29.89,NE,36,4.0,5.0,50,0.00,,,0.01,Wunderground v.1.15,2013-04-11 20:03:00,
2013-04-11 15:09:00,56.4,37.5,29.89,WNW,292,3.0,8.0,49,0.00,,,0.01,Wunderground v.1.15,2013-04-11 20:09:00,
2013-04-11 15:15:00,57.0,37.0,29.88,WSW,257,3.0,4.0,47,0.00,,,0.01,Wunderground v.1.15,2013-04-11 20:15:00,
2013-04-11 15:20:00,57.1,38.6,29.87,NNW,342,2.0,2.0,50,0.00,,,0.01,Wunderground v.1.15,2013-04-11 20:20:00,
2013-04-11 15:26:00,58.0,36.8,29.87,NW,323,3.0,3.0,45,0.00,,,0.01,Wunderground v.1.15,2013-04-11 20:26:00,
2013-04-11 15:31:00,58.3,37.6,29.87,West,274,2.0,3.0,46,0.00,,,0.01,Wunderground v.1.15,2013-04-11 20:31:00,
2013-04-11 15:37:00,58.0,37.3,29.87,WSW,254,2.0,4.0,46,0.00,,,0.01,Wunderground v.1.15,2013-04-11 20:37:00,
2013-04-11 15:42:00,58.4,37.7,29.86,WNW,294,2.0,4.0,46,0.00,,,0.01,Wunderground v.1.15,2013-04-11 20:42:00,
2013-04-11 15:48:00,58.2,37.0,29.86,NE,42,1.0,8.0,46,0.00,,,0.01,weatherlink.com 1.10,2013-04-11 20:48:00,
2013-04-11 15:53:00,58.3,36.5,29.86,NE,45,3.0,3.0,44,0.00,,,0.01,Wunderground v.1.15,2013-04-11 20:53:00,
2013-04-11 15:59:00,58.1,38.0,29.86,NNE,33,2.0,8.0,47,0.00,,,0.01,Wunderground v.1.15,2013-04-11 20:59:00,
2013-04-11 16:04:00,58.2,36.9,29.85,NE,46,3.0,3.0,45,0.00,,,0.01,Wunderground v.1.15,2013-04-11 21:04:00,
2013-04-11 16:10:00,58.5,37.2,29.85,NNE,32,3.0,3.0,45,0.00,,,0.01,Wunderground v.1.15,2013-04-11 21:10:00,
2013-04-11 16:16:00,58.7,38.0,29.85,North,5,4.0,5.0,46,0.00,,,0.01,Wunderground v.1.15,2013-04-11 21:16:00,
2013-04-11 16:21:00,58.7,36.8,29.85,NNW,341,4.0,4.0,44,0.00,,,0.01,Wunderground v.1.15,2013-04-11 21:21:00,
2013-04-11 16:26:00,59.4,39.7,29.85,NW,313,3.0,4.0,48,0.00,,,0.01,Wunderground v.1.15,2013-04-11 21:26:00,
2013-04-11 16:31:00,59.3,37.4,29.85,North,355,2.0,2.0,44,0.00,,,0.01,Wunderground v.1.15,2013-04-11 21:31:00,
2013-04-11 16:37:00,59.6,38.2,29.85,WNW,301,1.0,5.0,45,0.00,,,0.01,Wunderground v.1.15,2013-04-11 21:37:00,
2013-04-11 16:43:00,59.9,39.1,29.84,NW,325,1.0,2.0,46,0.00,,,0.01,Wunderground v.1.15,2013-04-11 21:43:00,
2013-04-11 16:49:00,59.8,37.2,29.84,NW,326,2.0,4.0,43,0.00,,,0.01,Wunderground v.1.15,2013-04-11 21:49:00,
2013-04-11 16:55:00,60.1,38.7,29.84,NW,313,3.0,4.0,45,0.00,,,0.01,Wunderground v.1.15,2013-04-11 21:55:00,
2013-04-11 17:00:00,60.5,38.5,29.84,ENE,66,2.0,2.0,44,0.00,,,0.01,Wunderground v.1.15,2013-04-11 22:00:00,
2013-04-11 17:06:00,60.2,39.3,29.84,NNW,344,2.0,5.0,46,0.00,,,0.01,Wunderground v.1.15,2013-04-11 22:06:00,
2013-04-11 17:12:00,60.3,37.7,29.84,NNE,22,2.0,3.0,43,0.00,,,0.01,Wunderground v.1.15,2013-04-11 22:12:00,
2013-04-11 17:18:00,60.2,38.2,29.83,North,351,2.0,3.0,44,0.00,,,0.01,Wunderground v.1.15,2013-04-11 22:18:00,
2013-04-11 17:24:00,60.8,38.1,29.83,North,360,2.0,4.0,43,0.00,,,0.01,Wunderground v.1.15,2013-04-11 22:24:00,
2013-04-11 17:29:00,60.9,38.2,29.83,North,351,2.0,5.0,43,0.00,,,0.01,Wunderground v.1.15,2013-04-11 22:29:00,
2013-04-11 17:35:00,61.5,39.4,29.83,NNW,329,2.0,6.0,44,0.00,,,0.01,Wunderground v.1.15,2013-04-11 22:35:00,
2013-04-11 17:41:00,61.4,39.9,29.83,ENE,70,2.0,2.0,45,0.00,,,0.01,Wunderground v.1.15,2013-04-11 22:41:00,
2013-04-11 17:46:00,61.6,38.3,29.84,NNW,342,1.0,5.0,42,0.00,,,0.01,Wunderground v.1.15,2013-04-11 22:46:00,
2013-04-11 17:52:00,61.3,38.6,29.84,NNE,19,3.0,5.0,43,0.00,,,0.01,Wunderground v.1.15,2013-04-11 22:52:00,
2013-04-11 17:57:00,61.3,38.6,29.84,North,11,2.0,5.0,43,0.00,,,0.01,Wunderground v.1.15,2013-04-11 22:57:00,
2013-04-11 18:03:00,61.6,38.0,29.84,North,355,3.0,5.0,42,0.00,,,0.01,weatherlink.com 1.10,2013-04-11 23:03:00,
2013-04-11 18:08:00,61.3,38.6,29.84,North,355,3.0,6.0,43,0.00,,,0.01,Wunderground v.1.15,2013-04-11 23:08:00,
2013-04-11 18:14:00,61.2,37.9,29.84,North,355,1.0,2.0,42,0.00,,,0.01,Wunderground v.1.15,2013-04-11 23:14:00,
2013-04-11 18:20:00,61.7,39.0,29.83,NNW,345,1.0,3.0,43,0.00,,,0.01,Wunderground v.1.15,2013-04-11 23:20:00,
2013-04-11 18:26:00,61.6,38.9,29.84,NNW,341,2.0,4.0,43,0.00,,,0.01,Wunderground v.1.15,2013-04-11 23:26:00,
2013-04-11 18:31:00,62.0,38.6,29.84,NW,320,1.0,1.0,42,0.00,,,0.01,Wunderground v.1.15,2013-04-11 23:31:00,
2013-04-11 18:36:00,62.2,37.6,29.84,NNW,341,1.0,2.0,40,0.00,,,0.01,Wunderground v.1.15,2013-04-11 23:36:00,
2013-04-11 18:42:00,62.5,39.7,29.84,WNW,284,0.0,0.0,43,0.00,,,0.01,Wunderground v.1.15,2013-04-11 23:42:00,
2013-04-11 18:47:00,62.6,39.2,29.84,South,173,0.0,1.0,42,0.00,,,0.01,Wunderground v.1.15,2013-04-11 23:47:00,
2013-04-11 18:53:00,62.4,38.4,29.84,South,173,0.0,0.0,41,0.00,,,0.01,Wunderground v.1.15,2013-04-11 23:53:00,
2013-04-11 18:59:00,62.1,39.9,29.84,South,173,0.0,5.0,44,0.00,,,0.01,Wunderground v.1.15,2013-04-11 23:59:00,
2013-04-11 19:05:00,61.5,38.2,29.84,South,173,0.0,0.0,42,0.00,,,0.01,Wunderground v.1.15,2013-04-12 00:05:00,
2013-04-11 19:11:00,60.9,38.8,29.84,South,173,0.0,2.0,44,0.00,,,0.01,Wunderground v.1.15,2013-04-12 00:11:00,
2013-04-11 19:17:00,60.3,40.0,29.85,South,173,0.0,2.0,47,0.00,,,0.01,Wunderground v.1.15,2013-04-12 00:17:00,
2013-04-11 19:22:00,59.7,40.0,29.84,South,173,0.0,0.0,48,0.00,,,0.01,Wunderground v.1.15,2013-04-12 00:22:00,
2013-04-11 19:28:00,59.2,38.4,29.84,South,173,0.0,0.0,46,0.00,,,0.01,Wunderground v.1.15,2013-04-12 00:28:00,
2013-04-11 19:33:00,58.8,39.1,29.84,South,173,0.0,0.0,48,0.00,,,0.01,Wunderground v.1.15,2013-04-12 00:33:00,
2013-04-11 19:39:00,58.3,38.7,29.84,South,173,0.0,0.0,48,0.00,,,0.01,Wunderground v.1.15,2013-04-12 00:39:00,
2013-04-11 19:44:00,57.8,39.8,29.84,South,173,0.0,0.0,51,0.00,,,0.01,Wunderground v.1.15,2013-04-12 00:44:00,
2013-04-11 19:50:00,57.2,40.0,29.84,South,173,0.0,0.0,53,0.00,,,0.01,weatherlink.com 1.10,2013-04-12 00:50:00,
2013-04-11 19:55:00,56.7,39.7,29.84,South,173,0.0,0.0,53,0.00,,,0.01,Wunderground v.1.15,2013-04-12 00:55:00,
2013-04-11 20:00:00,56.3,39.9,29.84,South,173,0.0,0.0,54,0.00,,,0.01,Wunderground v.1.15,2013-04-12 01:00:00,
2013-04-11 20:06:00,55.8,39.4,29.84,South,173,0.0,0.0,54,0.00,,,0.01,Wunderground v.1.15,2013-04-12 01:06:00,
2013-04-11 20:11:00,55.4,40.0,29.85,South,173,0.0,0.0,56,0.00,,,0.01,Wunderground v.1.15,2013-04-12 01:11:00,
2013-04-11 20:17:00,54.8,40.3,29.85,South,173,0.0,0.0,58,0.00,,,0.01,Wunderground v.1.15,2013-04-12 01:17:00,
2013-04-11 20:23:00,54.4,39.9,29.85,South,173,0.0,0.0,58,0.00,,,0.01,Wunderground v.1.15,2013-04-12 01:23:00,
2013-04-11 20:28:00,53.9,39.9,29.85,South,173,0.0,0.0,59,0.00,,,0.01,Wunderground v.1.15,2013-04-12 01:28:00,
2013-04-11 20:34:00,53.3,40.0,29.86,South,173,0.0,0.0,60,0.00,,,0.01,weatherlink.com 1.10,2013-04-12 01:34:00,
2013-04-11 20:39:00,53.0,40.3,29.85,South,173,0.0,0.0,62,0.00,,,0.01,Wunderground v.1.15,2013-04-12 01:39:00,
2013-04-11 20:44:00,52.6,39.9,29.86,South,173,0.0,0.0,62,0.00,,,0.01,Wunderground v.1.15,2013-04-12 01:44:00,
2013-04-11 20:49:00,52.3,39.7,29.85,South,173,0.0,1.0,62,0.00,,,0.01,Wunderground v.1.15,2013-04-12 01:49:00,
2013-04-11 20:55:00,52.2,40.0,29.85,South,173,0.0,1.0,63,0.00,,,0.01,Wunderground v.1.15,2013-04-12 01:55:00,
2013-04-11 21:00:00,52.1,39.5,29.85,SE,136,0.0,0.0,62,0.00,,,0.01,Wunderground v.1.15,2013-04-12 02:00:00,
2013-04-11 21:06:00,51.9,38.9,29.85,SE,136,0.0,0.0,61,0.00,,,0.01,Wunderground v.1.15,2013-04-12 02:06:00,
2013-04-11 21:12:00,51.8,39.6,29.85,SE,136,0.0,1.0,63,0.00,,,0.01,Wunderground v.1.15,2013-04-12 02:12:00,
2013-04-11 21:17:00,51.7,39.9,29.86,SE,136,1.0,2.0,64,0.00,,,0.01,Wunderground v.1.15,2013-04-12 02:17:00,
2013-04-11 21:22:00,51.6,39.4,29.86,SE,136,1.0,1.0,63,0.00,,,0.01,Wunderground v.1.15,2013-04-12 02:22:00,
2013-04-11 21:27:00,51.4,39.2,29.86,SE,136,0.0,1.0,63,0.00,,,0.01,Wunderground v.1.15,2013-04-12 02:27:00,
2013-04-11 21:33:00,51.2,39.0,29.86,SE,136,0.0,0.0,63,0.00,,,0.01,Wunderground v.1.15,2013-04-12 02:33:00,
2013-04-11 21:39:00,51.0,39.6,29.86,SE,136,0.0,0.0,65,0.00,,,0.01,Wunderground v.1.15,2013-04-12 02:39:00,
2013-04-11 21:44:00,50.9,39.9,29.86,SE,136,0.0,0.0,66,0.00,,,0.01,Wunderground v.1.15,2013-04-12 02:44:00,
2013-04-11 21:50:00,50.7,39.4,29.86,SE,136,0.0,0.0,65,0.00,,,0.01,Wunderground v.1.15,2013-04-12 02:50:00,
2013-04-11 21:56:00,50.5,39.6,29.87,SE,136,0.0,2.0,66,0.00,,,0.01,Wunderground v.1.15,2013-04-12 02:56:00,
2013-04-11 22:02:00,50.3,39.4,29.87,SE,136,0.0,0.0,66,0.00,,,0.01,Wunderground v.1.15,2013-04-12 03:02:00,
2013-04-11 22:07:00,50.1,39.9,29.87,SE,136,0.0,0.0,68,0.00,,,0.01,Wunderground v.1.15,2013-04-12 03:07:00,
2013-04-11 22:12:00,49.9,39.4,29.87,SE,136,0.0,0.0,67,0.00,,,0.01,Wunderground v.1.15,2013-04-12 03:12:00,
2013-04-11 22:18:00,49.7,39.6,29.87,SE,136,0.0,0.0,68,0.00,,,0.01,Wunderground v.1.15,2013-04-12 03:18:00,
2013-04-11 22:24:00,49.5,39.4,29.88,SE,136,0.0,0.0,68,0.00,,,0.01,Wunderground v.1.15,2013-04-12 03:24:00,
2013-04-11 22:30:00,49.3,39.6,29.87,SE,136,0.0,0.0,69,0.00,,,0.01,Wunderground v.1.15,2013-04-12 03:30:00,
2013-04-11 22:35:00,49.2,39.5,29.87,SE,136,0.0,1.0,69,0.00,,,0.01,Wunderground v.1.15,2013-04-12 03:35:00,
2013-04-11 22:42:00,49.0,39.3,29.88,SE,136,0.0,1.0,69,0.00,,,0.01,Wunderground v.1.15,2013-04-12 03:42:00,
2013-04-11 22:48:00,48.8,39.4,29.88,SE,136,0.0,2.0,70,0.00,,,0.01,Wunderground v.1.15,2013-04-12 03:48:00,
2013-04-11 22:54:00,48.7,39.4,29.88,SE,136,0.0,1.0,70,0.00,,,0.01,Wunderground v.1.15,2013-04-12 03:54:00,
2013-04-11 23:00:00,48.7,39.4,29.88,SE,136,0.0,0.0,70,0.00,,,0.01,Wunderground v.1.15,2013-04-12 04:00:00,
2013-04-11 23:03:00,48.6,39.3,29.88,SE,136,0.0,1.0,70,0.00,,,0.01,Wunderground v.1.15,2013-04-12 04:03:00,
2013-04-11 23:04:00,48.6,39.0,29.88,SE,136,0.0,2.0,70,0.00,,,0.01,weatherlink.com 1.10,2013-04-12 04:04:00,
2013-04-11 23:09:00,48.6,39.3,29.88,SE,136,1.0,1.0,70,0.00,,,0.01,Wunderground v.1.15,2013-04-12 04:09:00,
2013-04-11 23:15:00,48.5,39.2,29.88,SE,136,0.0,0.0,70,0.00,,,0.01,Wunderground v.1.15,2013-04-12 04:15:00,
2013-04-11 23:21:00,48.3,39.0,29.88,SE,136,0.0,0.0,70,0.00,,,0.01,Wunderground v.1.15,2013-04-12 04:21:00,
2013-04-11 23:26:00,48.3,39.0,29.88,SE,136,0.0,2.0,70,0.00,,,0.01,Wunderground v.1.15,2013-04-12 04:26:00,
2013-04-11 23:32:00,48.2,38.9,29.88,SE,136,1.0,1.0,70,0.00,,,0.01,Wunderground v.1.15,2013-04-12 04:32:00,
2013-04-11 23:38:00,48.1,38.8,29.88,SE,136,0.0,1.0,70,0.00,,,0.01,Wunderground v.1.15,2013-04-12 04:38:00,
2013-04-11 23:43:00,48.0,38.7,29.88,SE,136,1.0,2.0,70,0.00,,,0.01,Wunderground v.1.15,2013-04-12 04:43:00,
2013-04-11 23:48:00,47.9,38.9,29.88,ESE,123,2.0,3.0,71,0.00,,,0.01,Wunderground v.1.15,2013-04-12 04:48:00,
2013-04-11 23:54:00,48.1,38.8,29.88,ESE,117,2.0,2.0,70,0.00,,,0.01,Wunderground v.1.15,2013-04-12 04:54:00,
2013-04-11 23:59:00,48.1,38.4,29.88,SE,132,1.0,2.0,69,0.00,,,0.01,Wunderground v.1.15,2013-04-12 04:59:00,